CW0262 Weather Reports


Display with metric or nautical units.
time (UTC)temp
F
wind
direction
speed
MPH
gust
MPH
rain 1hr
in
rain 24hr
in
rain mn
in
humidity
%
barometer
mb
20260904023704 80 211 0.0 0.0 0.00 0.31 0.31 100 1013.9
20260904023203 80 211 0.0 0.0 0.00 0.31 0.31 100 1014.9
20260904021704 80 211 0.0 0.0 0.00 0.31 0.31 100 1014.9
20260904020704 80 211 0.0 0.0 0.00 0.31 0.31 100 1014.9
20260904020204 80 211 0.0 0.0 0.00 0.31 0.31 100 1014.9
20260904014704 80 211 0.0 0.0 0.00 0.31 0.31 100 1013.9
20260904014204 80 211 0.0 0.0 0.00 0.31 0.31 100 1013.9
20260904013703 80 211 0.0 0.0 0.00 0.31 0.31 100 1013.9
20260904011704 80 211 0.0 0.0 0.00 0.31 0.31 100 1013.9
20260904011203 80 211 0.0 0.0 0.00 0.31 0.31 100 1013.9
20260904010704 80 134 0.0 0.0 0.00 0.31 0.31 100 1013.9
20260904010204 80 134 0.0 3.0 0.00 0.31 0.31 100 1013.9
20260904004704 79 115 2.0 3.0 0.00 0.31 0.31 100 1013.9
20260904003704 79 105 0.0 3.0 0.00 0.31 0.31 100 1013.9
20260904003204 79 110 0.0 3.0 0.00 0.31 0.31 100 1013.9
20260904001704 80 84 0.0 0.0 0.00 0.31 0.31 100 1013.9
20260904001204 80 84 0.0 0.0 0.00 0.31 0.31 100 1013.9
20260904000704 79 84 0.0 0.0 0.00 0.31 0.31 100 1013.9
20260903234703 79 114 0.0 0.0 0.00 0.31 0.31 100 1013.9
20260903234204 79 109 2.0 6.0 0.00 0.31 0.31 100 1013.9
20260903233704 80 140 0.0 5.0 0.00 0.31 0.31 100 1013.9
20260903233205 80 139 3.0 3.0 0.00 0.31 0.31 100 1012.9
20260903231703 80 127 3.0 5.0 0.00 0.31 0.31 100 1012.9
20260903231203 80 103 2.0 3.0 0.00 0.31 0.31 99 1012.9
20260903230703 80 114 1.0 3.0 0.00 0.31 0.31 99 1012.9
20260903230204 81 99 0.0 3.0 0.00 0.31 0.31 98 1013.9
20260903223703 81 184 0.0 2.0 0.00 0.31 0.31 97 1013.9
20260903223204 81 175 2.0 3.0 0.00 0.31 0.31 96 1013.9
20260903221704 81 194 1.0 3.0 0.00 0.31 0.31 96 1012.9
20260903220704 81 143 0.0 2.0 0.00 0.31 0.31 96 1012.9
20260903220203 82 139 3.0 3.0 0.04 0.31 0.31 96 1012.9
20260903214703 82 194 0.0 0.0 0.04 0.31 0.31 96 1012.9
20260903214204 82 194 0.0 0.0 0.04 0.31 0.31 96 1012.9
20260903213704 82 221 2.0 3.0 0.04 0.31 0.31 96 1012.9
20260903213203 82 247 2.0 3.0 0.04 0.31 0.31 95 1012.9
20260903211704 82 218 3.0 6.0 0.04 0.31 0.31 94 1012.9
20260903211204 82 227 5.0 8.0 0.04 0.31 0.31 93 1012.9
20260903210704 83 197 6.0 13.0 0.04 0.31 0.31 91 1012.9
20260903210203 83 183 7.0 16.0 0.00 0.28 0.28 86 1012.9
20260903204704 86 187 9.0 13.0 0.00 0.28 0.28 89 1011.9
20260903204204 86 171 5.0 6.0 0.00 0.28 0.28 89 1011.9
20260903203704 86 165 5.0 9.0 0.00 0.28 0.28 89 1011.9
20260903203204 86 127 7.0 10.0 0.00 0.28 0.28 88 1011.9
20260903201703 86 106 6.0 8.0 0.00 0.28 0.28 88 1012.9
20260903201204 86 115 4.0 8.0 0.00 0.28 0.28 88 1012.9
20260903200704 86 112 3.0 8.0 0.00 0.28 0.28 88 1012.9
20260903200204 86 132 7.0 10.0 0.00 0.28 0.28 88 1012.9
20260903194704 86 104 6.0 9.0 0.00 0.28 0.28 88 1011.9
20260903194204 86 94 6.0 12.0 0.00 0.28 0.28 89 1011.9
20260903193704 86 140 6.0 12.0 0.00 0.28 0.28 89 1011.9
20260903193204 87 92 7.0 9.0 0.00 0.28 0.28 88 1012.9
20260903191704 87 113 6.0 8.0 0.00 0.28 0.28 89 1012.9
20260903191203 87 104 7.0 9.0 0.00 0.28 0.28 89 1012.9
20260903190704 87 98 7.0 8.0 0.00 0.28 0.28 89 1012.9
20260903190204 87 88 5.0 8.0 0.00 0.28 0.28 90 1012.9
20260903184704 87 107 6.0 8.0 0.00 0.28 0.28 90 1012.9
20260903184203 87 99 6.0 9.0 0.00 0.28 0.28 90 1012.9
20260903183704 87 90 6.0 9.0 0.00 0.28 0.28 90 1012.9
20260903183203 87 96 7.0 10.0 0.00 0.28 0.28 88 1012.9
20260903181703 87 84 6.0 8.0 0.00 0.28 0.28 91 1012.9
20260903181204 87 102 7.0 9.0 0.00 0.28 0.28 91 1012.9
20260903174204 87 130 6.0 10.0 0.00 0.28 0.28 89 1013.9
20260903173703 87 120 5.0 13.0 0.00 0.28 0.28 89 1013.9
20260903173204 87 121 7.0 9.0 0.00 0.28 0.28 89 1013.9
20260903171704 87 101 5.0 6.0 0.00 0.28 0.28 92 1013.9
20260903171203 86 109 3.0 6.0 0.00 0.28 0.28 96 1013.9
20260903170703 86 95 3.0 6.0 0.00 0.28 0.28 94 1013.9
20260903170204 86 115 2.0 8.0 0.00 0.28 0.28 92 1013.9
20260903164703 87 102 6.0 8.0 0.00 0.28 0.28 86 1013.9
20260903163704 88 91 8.0 12.0 0.00 0.28 0.28 87 1013.9
20260903163204 89 108 6.0 8.0 0.00 0.28 0.28 83 1014.9
20260903161704 90 134 5.0 8.0 0.00 0.28 0.28 78 1013.9
20260903161204 90 146 2.0 6.0 0.00 0.28 0.28 76 1013.9
20260903160704 90 179 6.0 8.0 0.00 0.28 0.28 78 1013.9
20260903160204 90 205 3.0 6.0 0.00 0.28 0.28 82 1014.9
20260903154704 89 176 6.0 8.0 0.00 0.28 0.28 81 1014.9
20260903154204 89 174 3.0 8.0 0.00 0.28 0.28 81 1014.9
20260903153704 89 249 3.0 6.0 0.00 0.31 0.28 84 1014.9
20260903153204 89 204 1.0 8.0 0.00 0.31 0.28 84 1014.9
20260903151703 88 161 6.0 8.0 0.00 0.31 0.28 85 1014.9
20260903151204 88 154 5.0 8.0 0.00 0.31 0.28 86 1014.9
20260903150704 88 161 6.0 8.0 0.00 0.31 0.28 86 1014.9
20260903150204 88 165 4.0 8.0 0.00 0.31 0.28 88 1014.9
20260903144203 87 198 5.0 8.0 0.00 0.31 0.28 90 1014.9
20260903143703 87 155 4.0 6.0 0.00 0.31 0.28 92 1014.9
20260903141204 85 231 3.0 6.0 0.00 0.31 0.28 97 1013.9
20260903140704 85 232 5.0 6.0 0.00 0.31 0.28 97 1013.9
20260903140204 85 224 3.0 6.0 0.00 0.31 0.28 96 1013.9
20260903134704 84 121 0.0 2.0 0.00 0.31 0.28 99 1013.9
20260903134204 84 217 2.0 3.0 0.00 0.31 0.28 99 1013.9
20260903133204 83 208 0.0 3.0 0.00 0.31 0.28 100 1013.9
20260903131704 82 147 2.0 3.0 0.00 0.31 0.28 100 1013.9
20260903130704 81 208 1.0 5.0 0.00 0.31 0.28 100 1013.9
20260903130204 81 232 0.0 3.0 0.00 0.31 0.28 100 1013.9
20260903124704 80 221 3.0 3.0 0.00 0.31 0.28 100 1013.9
20260903123704 80 218 0.0 2.0 0.00 0.31 0.28 100 1013.9
20260903121703 78 241 0.0 0.0 0.00 0.31 0.28 100 1013.9
20260903120704 78 241 0.0 0.0 0.00 0.31 0.28 100 1013.9
20260903120204 78 241 0.0 0.0 0.00 0.31 0.28 100 1012.9
20260903113704 77 240 0.0 0.0 0.00 0.31 0.28 100 1013.9
20260903113204 77 240 0.0 0.0 0.00 0.31 0.28 100 1012.9
20260903111704 77 240 0.0 0.0 0.00 0.31 0.28 100 1012.9
20260903111204 77 240 0.0 0.0 0.00 0.31 0.28 100 1012.9
20260903110704 77 240 0.0 0.0 0.00 0.31 0.28 100 1012.9
20260903110204 77 240 0.0 0.0 0.00 0.31 0.28 100 1012.9
20260903104704 77 240 0.0 0.0 0.00 0.31 0.28 100 1012.9
20260903104204 77 240 0.0 0.0 0.00 0.31 0.28 100 1012.9
20260903103704 77 240 0.0 0.0 0.00 0.31 0.28 100 1012.9
20260903103204 77 240 0.0 0.0 0.00 0.31 0.28 100 1012.9
20260903101704 77 240 0.0 0.0 0.00 0.31 0.28 100 1012.9
20260903101203 77 240 0.0 0.0 0.00 0.31 0.28 100 1012.9
20260903094704 77 240 0.0 0.0 0.00 0.31 0.28 100 1012.9
20260903093704 77 240 0.0 0.0 0.00 0.31 0.28 100 1012.9
20260903091704 77 240 0.0 0.0 0.00 0.31 0.28 100 1012.9
20260903091204 77 240 0.0 0.0 0.00 0.31 0.28 100 1012.9
20260903090704 77 240 0.0 0.0 0.00 0.31 0.28 100 1012.9
20260903090204 78 240 0.0 0.0 0.00 0.31 0.28 100 1011.9
20260903084704 78 240 0.0 0.0 0.00 0.31 0.28 100 1012.9
20260903084203 78 240 0.0 0.0 0.00 0.31 0.28 100 1012.9
20260903083703 78 240 0.0 0.0 0.00 0.31 0.28 100 1012.9
20260903083204 78 240 0.0 0.0 0.00 0.31 0.28 100 1012.0
20260903081703 78 240 0.0 0.0 0.00 0.31 0.28 100 1012.9
20260903081204 78 240 0.0 2.0 0.00 0.31 0.28 100 1012.9
20260903080704 78 240 0.0 2.0 0.00 0.31 0.28 100 1012.9
20260903080203 78 240 1.0 2.0 0.00 0.31 0.28 100 1012.9
20260903074704 78 210 0.0 0.0 0.00 0.31 0.28 100 1012.9
20260903074203 78 210 0.0 0.0 0.00 0.31 0.28 100 1012.9
20260903073703 78 211 0.0 2.0 0.00 0.31 0.28 100 1012.9
20260903073204 78 188 0.0 3.0 0.00 0.31 0.28 100 1012.9
20260903071704 78 187 0.0 0.0 0.00 0.31 0.28 100 1012.9
20260903070703 78 140 0.0 3.0 0.00 0.31 0.28 100 1012.9
20260903070203 78 181 0.0 0.0 0.00 0.31 0.28 100 1012.9
20260903064704 78 211 0.0 0.0 0.00 0.31 0.28 100 1012.9
20260903064204 78 213 0.0 0.0 0.00 0.31 0.28 100 1012.9
20260903063204 78 214 0.0 3.0 0.00 0.31 0.28 100 1012.9
20260903061703 79 203 0.0 3.0 0.04 0.31 0.28 100 1012.9
20260903060704 79 226 1.0 3.0 0.04 0.31 0.28 100 1012.9
20260903060204 79 229 2.0 3.0 0.04 0.31 0.28 100 1012.9
20260903054703 79 253 0.0 3.0 0.28 0.31 0.28 100 1012.9
20260903054204 79 226 0.0 6.0 0.28 0.31 0.28 100 1012.9
20260903053703 79 197 2.0 5.0 0.28 0.31 0.28 100 1012.9
20260903053203 79 184 0.0 6.0 0.28 0.31 0.28 100 1013.9
20260903051704 79 180 3.0 6.0 0.24 0.28 0.24 100 1013.9
20260903051203 79 189 4.0 6.0 0.24 0.28 0.24 100 1013.9
20260903050204 80 197 6.0 13.0 0.24 0.28 0.24 100 1013.9
20260903044703 80 170 8.0 13.0 0.00 0.04 0.00 100 1013.9
20260903043205 81 212 0.0 0.0 0.00 0.04 0.00 100 1013.9
20260903041703 81 212 0.0 0.0 0.00 0.04 0.00 100 1014.9
20260903041204 81 212 0.0 0.0 0.00 0.04 0.00 100 1014.9
20260903040704 81 211 0.0 0.0 0.00 0.04 0.00 100 1014.9
20260903040204 81 212 0.0 0.0 0.00 0.04 0.00 100 1013.9
20260903034704 81 126 0.0 0.0 0.00 0.04 0.04 100 1014.8
20260903033206 81 126 0.0 0.0 0.00 0.04 0.04 100 1014.9
20260903031704 81 126 0.0 0.0 0.00 0.04 0.04 100 1013.9
20260903030705 81 126 0.0 0.0 0.00 0.04 0.04 100 1013.9
20260903024704 81 74 0.0 0.0 0.00 0.04 0.04 100 1013.9
20260903024204 81 71 0.0 0.0 0.00 0.04 0.04 100 1013.9